Pensacola, FL

11:55 PM CST on February 09, 2016 (GMT -0600)
Pensacola Regional

Weather History for KPNS - April, 2013

Change the Weather History Date:

Thursday, April 11, 2013

  Actual Average Record
Temperature  
Mean Temperature 71 °F 66 °F  
Max Temperature 79 °F 75 °F 89 °F (1999)
Min Temperature 63 °F 56 °F 37 °F (1973)
Degree Days  
Heating Degree Days 0 2  
Month to date heating degree days 17 30  
Since 1 July heating degree days 1155 1514  
Cooling Degree Days 6 3  
Month to date cooling degree days 31 24  
Year to date cooling degree days 86 71  
Growing Degree Days 22 (Base 50)    
Moisture  
Dew Point 69 °F    
Average Humidity 88    
Maximum Humidity 97    
Minimum Humidity 79    
Precipitation  
Precipitation 1.77 in 0.15 in 4.06 in (1995)
Month to date precipitation 3.11 1.71  
Year to date precipitation 18.93 17.21  
Snow  
Snow 0.00 in 0.00 in - ()
Month to date snowfall 0.0 0.0  
Since 1 July snowfall 0.0 0.0  
Snow Depth 0.00 in    
Sea Level Pressure  
Sea Level Pressure 29.75 in    
Wind  
Wind Speed 14 mph (South)    
Max Wind Speed 40 mph    
Max Gust Speed 63 mph    
Visibility 7 miles    
Events Fog , Rain , Thunderstorm    
T = Trace of Precipitation, MM = Missing Value Source: NWS Daily Summary

Daily Weather History Graph

Daily Weather History Graph

Search for Another Location

Airport or City:

Trip Planner

Search our weather history database for the weather conditions in past years. The results will help you decide how hot, cold, wet, or windy it might be!

Date:

Astronomy

Apr. 11, 2013 Rise Set
Actual Time 6:25 AM CDT 7:14 PM CDT
Civil Twilight 6:01 AM CDT 7:38 PM CDT
Nautical Twilight 5:32 AM CDT 8:07 PM CDT
Astronomical Twilight 5:02 AM CDT 8:37 PM CDT
Moon 7:02 AM CDT (4/11) 8:40 PM CDT (4/11)
Length of Visible Light 13h 37m
Length of Day
12h 48m
New Moon, 2% of the Moon is Illuminated
Apr 11
New Moon
Apr 18
First Quarter
Apr 25
Full
May 2
Last Quarter
May 9
New

Hourly Weather History & Observations

Time (CDT) Temp. Dew Point Humidity Pressure Visibility Wind Dir Wind Speed Gust Speed Precip Events Conditions
12:53 AM 70.0 °F 68.0 °F 93% 29.90 in 9.0 mi ESE 9.2 mph - N/A   Overcast
1:53 AM 70.0 °F 68.0 °F 93% 29.87 in 8.0 mi SE 8.1 mph - N/A   Overcast
2:25 AM 69.8 °F 68.0 °F 94% 29.85 in 8.0 mi SE 8.1 mph - N/A   Overcast
2:53 AM 71.1 °F 69.1 °F 93% 29.85 in 7.0 mi SE 8.1 mph - N/A   Overcast
3:53 AM 71.1 °F 69.1 °F 93% 29.83 in 6.0 mi SE 8.1 mph - N/A   Overcast
4:53 AM 71.1 °F 70.0 °F 96% 29.83 in 7.0 mi SE 6.9 mph - N/A   Overcast
5:53 AM 72.0 °F 70.0 °F 93% 29.82 in 8.0 mi SE 8.1 mph - N/A   Overcast
6:53 AM 72.0 °F 70.0 °F 93% 29.83 in 5.0 mi SE 10.4 mph - N/A   Overcast
7:53 AM 72.0 °F 70.0 °F 93% 29.85 in 5.0 mi SE 10.4 mph - N/A   Overcast
8:53 AM 73.9 °F 71.1 °F 91% 29.85 in 9.0 mi SSE 12.7 mph - N/A   Overcast
9:53 AM 75.9 °F 71.1 °F 85% 29.86 in 10.0 mi SSE 15.0 mph - N/A   Overcast
10:53 AM 77.0 °F 71.1 °F 82% 29.85 in 10.0 mi SSE 19.6 mph 24.2 mph N/A   Overcast
11:53 AM 77.0 °F 71.6 °F 83% 29.83 in 10.0 mi SSE 18.4 mph - N/A   Overcast
12:00 PM 78.8 °F 71.6 °F 78% 29.83 in 10.0 mi SSE 18.4 mph 26.5 mph N/A   Overcast
12:12 PM 78.8 °F 71.6 °F 78% 29.82 in 10.0 mi SSE 18.4 mph 29.9 mph N/A   Overcast
12:53 PM 78.1 °F 72.0 °F 81% 29.81 in 9.0 mi SSE 17.3 mph 25.3 mph N/A   Overcast
1:53 PM 78.1 °F 72.0 °F 81% 29.76 in 8.0 mi SSE 23.0 mph 28.8 mph N/A   Overcast
2:53 PM 77.0 °F 72.0 °F 84% 29.75 in 8.0 mi SSE 16.1 mph 24.2 mph N/A   Overcast
3:53 PM 75.9 °F 72.0 °F 87% 29.70 in 7.0 mi SSE 18.4 mph 25.3 mph N/A   Overcast
4:53 PM 75.0 °F 72.0 °F 90% 29.67 in 6.0 mi SSE 23.0 mph 27.6 mph 0.00 in   Overcast
5:53 PM 73.9 °F 72.0 °F 93% 29.63 in 6.0 mi South 27.6 mph 35.7 mph 0.00 in Rain Light Rain
6:37 PM 73.4 °F 71.6 °F 94% 29.65 in 1.8 mi SSW 17.3 mph 27.6 mph 0.19 in Rain Heavy Rain
6:44 PM 73.4 °F 71.6 °F 94% 29.62 in 2.0 mi SSW 15.0 mph 25.3 mph 0.30 in Rain Rain
6:53 PM 73.9 °F 72.0 °F 93% 29.63 in 1.8 mi South 21.9 mph 29.9 mph 0.54 in Rain , Thunderstorm Heavy Thunderstorms and Rain
6:56 PM 73.4 °F 71.6 °F 94% 29.63 in 2.5 mi SSW 23.0 mph 33.4 mph 0.02 in Rain , Thunderstorm Thunderstorms and Rain
7:02 PM 73.4 °F 71.6 °F 94% 29.63 in 3.0 mi SSW 28.8 mph 39.1 mph 0.07 in Rain , Thunderstorm Heavy Thunderstorms and Rain
7:10 PM 73.4 °F 71.6 °F 94% 29.66 in 4.0 mi SSW 23.0 mph 38.0 mph 0.12 in Rain , Thunderstorm Heavy Thunderstorms and Rain
7:17 PM 73.4 °F 71.6 °F 94% 29.65 in 1.8 mi SSW 18.4 mph 31.1 mph 0.24 in Rain , Thunderstorm Heavy Thunderstorms and Rain
7:30 PM 69.8 °F 68.0 °F 94% 29.67 in 0.5 mi SW 6.9 mph 63.3 mph 0.91 in Fog , Rain , Thunderstorm Heavy Thunderstorms and Rain
7:39 PM 69.8 °F 68.0 °F 94% 29.66 in 2.0 mi SSW 6.9 mph - 1.10 in Rain , Thunderstorm Heavy Thunderstorms and Rain
7:53 PM 69.1 °F 68.0 °F 96% 29.68 in 7.0 mi South 12.7 mph - 1.14 in Rain Rain
8:53 PM 69.1 °F 66.9 °F 93% 29.69 in 10.0 mi South 9.2 mph - 0.09 in Rain Light Rain
9:30 PM 69.8 °F 66.2 °F 88% 29.72 in 9.0 mi SSW 9.2 mph - 0.00 in   Scattered Clouds
9:53 PM 69.1 °F 66.9 °F 93% 29.73 in 10.0 mi WSW 9.2 mph - 0.00 in   Mostly Cloudy
10:10 PM 69.8 °F 66.2 °F 88% 29.74 in 10.0 mi West 6.9 mph - N/A   Scattered Clouds
10:34 PM 69.8 °F 66.2 °F 88% 29.74 in 10.0 mi WNW 3.5 mph - N/A   Mostly Cloudy
10:53 PM 68.0 °F 66.0 °F 93% 29.74 in 10.0 mi Calm Calm - N/A   Overcast
11:31 PM 66.2 °F 64.4 °F 94% 29.75 in 10.0 mi WNW 10.4 mph - N/A   Mostly Cloudy
11:44 PM 66.2 °F 64.4 °F 94% 29.75 in 10.0 mi NW 8.1 mph - N/A   Overcast
11:53 PM 64.9 °F 62.1 °F 90% 29.76 in 10.0 mi NNW 11.5 mph - N/A   Mostly Cloudy